Location: Terra Rouge Observatory
(46.0000°N, 62.7500°W)
Time: 23:02:00
(UTC-03:00)

Amateur Radio Satellites - All Passes

Search period start: 14 September 2014 22:32
Search period end: 15 September 2014 22:32
Location: Terra Rouge Observatory, 46.0000°N, 62.7500°W

Satellite Date Start Highest point End Downlink Frequencies (MHz)
Time Altitude Azimuth
UKube-1 14 Sep 22:36:27 22:40:13 29° 264° (W) 22:44:00 145.840 MHz, 145.915 MHz
PCSat 14 Sep 22:43:05 22:48:33 78° 56° (ENE) 22:53:58 145.825 MHz
FUNcube-1 14 Sep 23:36:34 23:40:11 25° 267° (W) 23:43:54 145.950 - 145.970 MHz USB
HO-68 14 Sep 23:39:32 23:39:49 10° 277° (W) 23:40:07 435.675 MHz FM
Sapphire 14 Sep 23:59:16 00:03:58 31° 250° (WSW) 00:08:39 437.095 MHz 1200 baud AX-25 AFSK
SO-50 15 Sep 00:11:09 00:15:29 51° 120° (ESE) 00:19:57 436.795 FM
KITSAT 1 15 Sep 00:11:49 00:18:03 23° 337° (NNW) 00:24:17 435.175 FM
PCSat 15 Sep 00:27:52 00:31:18 17° 255° (WSW) 00:34:44 145.825 MHz
Oscar 19 15 Sep 01:45:40 01:49:24 20° 91° (E) 01:53:05 437.125 CW, 437.150 USB
SO-50 15 Sep 01:52:25 01:56:18 27° 321° (NW) 02:00:17 436.795 FM
KITSAT 1 15 Sep 02:11:35 02:16:53 18° 7° (N) 02:22:10 435.175 FM
UOSAT-12 15 Sep 02:18:15 02:22:52 76° 124° (SE) 02:27:36 437.025 FM, 437.400 FM
Oscar 16 15 Sep 02:22:43 02:27:40 43° 98° (E) 02:32:33 437.025 USB, Beacon 2401.1428
Saudisat 1A 15 Sep 02:34:17 02:38:14 31° 42° (NE) 02:42:11 436.775 MHz
TMSAT-1 15 Sep 02:54:17 02:56:45 13° 87° (E) 02:59:11 436.925 FM
ITAMSAT 1 15 Sep 02:55:09 02:59:57 36° 97° (E) 03:04:43 435.822 SSB
Uribyol 2 15 Sep 03:00:39 03:05:37 42° 98° (E) 03:10:33 436.500 FM
JAS-1B 15 Sep 03:05:18 03:11:02 46° 98° (E) 03:16:27 435.800 - 435.900 CW/SSB
AO-Echo 15 Sep 03:18:10 03:22:56 67° 102° (ESE) 03:27:47 ?
Oscar 19 15 Sep 03:24:02 03:29:08 59° 289° (WNW) 03:34:12 437.125 CW, 437.150 USB
AO-27 15 Sep 03:28:30 03:33:44 72° 103° (ESE) 03:38:55 436.795 MHz FM
Gurwin Techsat 1B 15 Sep 03:51:34 03:56:49 56° 101° (E) 04:02:02 435.225 FM
UOSAT-12 15 Sep 03:59:55 04:03:33 22° 325° (NW) 04:07:15 437.025 FM, 437.400 FM
Oscar 16 15 Sep 04:02:26 04:06:50 28° 296° (WNW) 04:11:12 437.025 USB, Beacon 2401.1428
KITSAT 1 15 Sep 04:07:57 04:15:10 34° 36° (NE) 04:22:21 435.175 FM
Saudisat 1A 15 Sep 04:13:47 04:17:54 39° 241° (WSW) 04:22:00 436.775 MHz
OPAL 15 Sep 04:14:29 04:19:23 46° 66° (ENE) 04:24:22 ?
Uosat F 15 Sep 04:24:55 04:27:54 16° 90° (E) 04:30:52 435.120 FM
TMSAT-1 15 Sep 04:32:03 04:37:23 88° 285° (WNW) 04:42:42 436.925 FM
ITAMSAT 1 15 Sep 04:34:45 04:39:23 33° 295° (WNW) 04:44:01 435.822 SSB
Uribyol 2 15 Sep 04:40:29 04:44:55 29° 296° (WNW) 04:49:20 436.500 FM
AO-7 15 Sep 04:49:01 04:56:29 36° 97° (E) 05:03:54 29.400 - 29.500 MHz
JAS-1B 15 Sep 04:56:29 05:01:30 28° 300° (WNW) 05:06:14 435.800 - 435.900 CW/SSB
AO-Echo 15 Sep 04:58:12 05:01:14 17° 300° (WNW) 05:04:19 ?
RS-15 15 Sep 05:04:51 05:15:04 46° 111° (ESE) 05:25:09 29.354 - 29.394 USB, Beacon 29.352 USB
ISS 15 Sep 05:08:08 05:11:12 35° 142° (SE) 05:14:17 145.800 FM
AO-27 15 Sep 05:09:12 05:12:42 19° 301° (WNW) 05:16:11 436.795 MHz FM
Gurwin Techsat 1B 15 Sep 05:32:19 05:36:25 23° 299° (WNW) 05:40:30 435.225 FM
OPAL 15 Sep 05:54:09 05:58:27 26° 264° (W) 06:02:49 ?
JAS-2 15 Sep 06:01:55 06:06:25 23° 93° (E) 06:11:15 435.800 - 435.900 CW/SSB, 435.910 FM
Uosat F 15 Sep 06:02:12 06:07:12 71° 287° (WNW) 06:12:12 435.120 FM
KITSAT 1 15 Sep 06:03:18 06:11:24 79° 239° (WSW) 06:19:27 435.175 FM
TMSAT-1 15 Sep 06:13:42 06:16:33 15° 304° (NW) 06:19:23 436.925 FM
STRAND 1 15 Sep 06:25:59 06:30:44 42° 68° (ENE) 06:35:31 ?
AO-7 15 Sep 06:41:33 06:49:38 59° 297° (WNW) 06:57:40 29.400 - 29.500 MHz
ISS 15 Sep 06:44:37 06:47:52 48° 341° (NNW) 06:51:07 145.800 FM
SO-50 15 Sep 07:00:21 07:03:54 20° 34° (NE) 07:07:28 436.795 FM
RS-15 15 Sep 07:16:14 07:27:06 62° 315° (NW) 07:37:58 29.354 - 29.394 USB, Beacon 29.352 USB
Hamsat 15 Sep 07:18:18 07:22:37 87° 284° (WNW) 07:26:51 145.90 MHz
SO-67 15 Sep 07:35:21 07:37:54 19° 93° (E) 07:40:27 435.3500 MHz FM
Uosat F 15 Sep 07:43:38 07:45:06 11° 306° (NW) 07:46:33 435.120 FM
JAS-2 15 Sep 07:46:14 07:51:50 62° 288° (WNW) 07:58:07 435.800 - 435.900 CW/SSB, 435.910 FM
KITSAT 1 15 Sep 08:00:37 08:05:31 18° 259° (W) 08:10:26 435.175 FM
STRAND 1 15 Sep 08:05:47 08:10:04 27° 266° (W) 08:14:23 ?
ISS 15 Sep 08:22:05 08:25:04 29° 1° (N) 08:28:03 145.800 FM
AO-7 15 Sep 08:36:05 08:40:45 17° 319° (NW) 08:45:25 29.400 - 29.500 MHz
SO-50 15 Sep 08:40:17 08:45:06 89° 234° (SW) 08:49:58 436.795 FM
Hamsat 15 Sep 08:57:00 08:57:51 11° 302° (WNW) 08:58:41 145.90 MHz
UOSAT-12 15 Sep 09:06:01 09:09:56 25° 37° (NE) 09:13:48 437.025 FM, 437.400 FM
SO-67 15 Sep 09:07:58 09:10:58 28° 290° (WNW) 09:13:57 435.3500 MHz FM
HO-68 15 Sep 09:09:10 09:14:45 24° 91° (E) 09:20:18 435.675 MHz FM
RS-15 15 Sep 09:32:51 09:42:11 31° 347° (NNW) 09:51:38 29.354 - 29.394 USB, Beacon 29.352 USB
JAS-2 15 Sep 09:34:28 09:36:01 11° 307° (NW) 09:37:36 435.800 - 435.900 CW/SSB, 435.910 FM
MaSat-1 15 Sep 09:40:53 09:45:37 42° 111° (ESE) 09:50:20 437.345 MHz
ISS 15 Sep 09:58:58 10:02:15 52° 20° (NNE) 10:05:31 145.800 FM
Oscar 11 15 Sep 10:10:20 10:13:47 22° 93° (E) 10:17:12 145.825 FM, Beacon 2401.500 USB
UKube-1 15 Sep 10:21:36 10:25:41 38° 98° (E) 10:29:45 145.840 MHz, 145.915 MHz
SO-50 15 Sep 10:22:48 10:24:59 13° 252° (WSW) 10:27:11 436.795 FM
UOSAT-12 15 Sep 10:45:48 10:50:29 64° 238° (WSW) 10:55:06 437.025 FM, 437.400 FM
HO-68 15 Sep 10:55:57 11:03:06 73° 291° (WNW) 11:10:14 435.675 MHz FM
MaSat-1 15 Sep 11:18:01 11:22:34 32° 309° (NW) 11:27:01 437.345 MHz
FUNcube-1 15 Sep 11:22:09 11:26:42 53° 100° (E) 11:31:13 145.950 - 145.970 MHz USB
ISS 15 Sep 11:35:52 11:38:52 31° 219° (SW) 11:41:51 145.800 FM
Oscar 11 15 Sep 11:46:03 11:50:06 38° 291° (WNW) 11:54:07 145.825 FM, Beacon 2401.500 USB
RS-15 15 Sep 11:48:58 11:58:43 34° 21° (NNE) 12:08:40 29.354 - 29.394 USB, Beacon 29.352 USB
UKube-1 15 Sep 11:58:13 12:01:41 24° 296° (WNW) 12:05:09 145.840 MHz, 145.915 MHz
JAS-1B 15 Sep 12:05:51 12:09:43 14° 50° (NE) 12:13:20 435.800 - 435.900 CW/SSB
Oscar 16 15 Sep 12:06:25 12:08:42 13° 55° (NE) 12:10:59 437.025 USB, Beacon 2401.1428
ITAMSAT 1 15 Sep 12:40:33 12:42:08 11° 53° (NE) 12:43:44 435.822 SSB
Uribyol 2 15 Sep 12:45:06 12:47:29 13° 55° (NE) 12:49:52 436.500 FM
HO-68 15 Sep 12:45:15 12:49:39 18° 311° (NW) 12:54:04 435.675 MHz FM
AO-Echo 15 Sep 12:57:37 13:00:21 15° 59° (ENE) 13:03:04 ?
FUNcube-1 15 Sep 12:59:24 13:02:43 20° 297° (WNW) 13:06:01 145.950 - 145.970 MHz USB
Sapphire 15 Sep 13:00:51 13:05:05 24° 108° (ESE) 13:09:22 437.095 MHz 1200 baud AX-25 AFSK
Oscar 19 15 Sep 13:04:37 13:09:21 37° 66° (ENE) 13:14:06 437.125 CW, 437.150 USB
AO-27 15 Sep 13:11:37 13:15:25 21° 60° (ENE) 13:19:13 436.795 MHz FM
PCSat 15 Sep 13:27:22 13:32:26 42° 114° (ESE) 13:37:32 145.825 MHz
Gurwin Techsat 1B 15 Sep 13:37:43 13:41:11 18° 58° (ENE) 13:44:40 435.225 FM
Oscar 16 15 Sep 13:42:01 13:47:12 79° 74° (ENE) 13:52:26 437.025 USB, Beacon 2401.1428
JAS-1B 15 Sep 13:50:34 13:59:08 59° 69° (ENE) 14:06:20 435.800 - 435.900 CW/SSB
RS-15 15 Sep 14:02:03 14:13:10 76° 51° (NE) 14:24:41 29.354 - 29.394 USB, Beacon 29.352 USB
AO-7 15 Sep 14:02:33 14:07:21 17° 42° (NE) 14:12:09 29.400 - 29.500 MHz
ITAMSAT 1 15 Sep 14:15:34 14:20:42 69° 72° (ENE) 14:25:52 435.822 SSB
TMSAT-1 15 Sep 14:16:43 14:21:07 28° 63° (ENE) 14:25:32 436.925 FM
Uribyol 2 15 Sep 14:20:59 14:26:08 81° 74° (ENE) 14:31:21 436.500 FM
AO-Echo 15 Sep 14:33:48 14:38:35 73° 257° (WSW) 14:43:19 ?
Sapphire 15 Sep 14:42:48 14:48:07 58° 307° (NW) 14:53:30 437.095 MHz 1200 baud AX-25 AFSK
Oscar 19 15 Sep 14:44:06 14:48:43 32° 264° (W) 14:53:23 437.125 CW, 437.150 USB
AO-27 15 Sep 14:49:23 14:54:30 61° 259° (WSW) 14:59:38 436.795 MHz FM
PCSat 15 Sep 15:10:58 15:15:56 36° 313° (NW) 15:20:57 145.825 MHz
Gurwin Techsat 1B 15 Sep 15:15:15 15:20:33 76° 257° (WSW) 15:25:54 435.225 FM
Oscar 16 15 Sep 15:24:21 15:27:11 15° 272° (W) 15:30:01 437.025 USB, Beacon 2401.1428
Uosat F 15 Sep 15:40:10 15:44:26 29° 64° (ENE) 15:48:42 435.120 FM
JAS-1B 15 Sep 15:42:04 15:49:54 34° 264° (W) 15:56:43 435.800 - 435.900 CW/SSB
AO-7 15 Sep 15:50:24 15:58:31 60° 64° (ENE) 16:06:37 29.400 - 29.500 MHz
TMSAT-1 15 Sep 15:55:46 16:00:49 45° 261° (W) 16:05:55 436.925 FM
ITAMSAT 1 15 Sep 15:57:28 16:00:43 17° 270° (W) 16:03:59 435.822 SSB
Uribyol 2 15 Sep 16:03:38 16:06:16 14° 272° (W) 16:08:55 436.500 FM
RS-15 15 Sep 16:15:08 16:24:39 35° 253° (WSW) 16:34:31 29.354 - 29.394 USB, Beacon 29.352 USB
JAS-2 15 Sep 16:21:10 16:22:40 11° 54° (NE) 16:24:11 435.800 - 435.900 CW/SSB, 435.910 FM
Sapphire 15 Sep 16:29:37 16:32:45 15° 329° (NNW) 16:35:54 437.095 MHz 1200 baud AX-25 AFSK
Hamsat 15 Sep 16:41:18 16:42:41 11° 59° (ENE) 16:44:05 145.90 MHz
PCSat 15 Sep 16:59:25 17:01:03 11° 337° (NNW) 17:02:40 145.825 MHz
Gurwin Techsat 1B 15 Sep 17:01:04 17:01:25 10° 275° (W) 17:01:47 435.225 FM
Uosat F 15 Sep 17:18:26 17:23:05 39° 262° (W) 17:27:46 435.120 FM
AO-7 15 Sep 17:44:18 17:51:41 35° 264° (W) 17:59:07 29.400 - 29.500 MHz
MaSat-1 15 Sep 17:56:00 17:58:54 18° 43° (NE) 18:01:32 437.345 MHz
OPAL 15 Sep 18:00:25 18:05:37 67° 105° (ESE) 18:10:43 ?
JAS-2 15 Sep 18:01:36 18:06:56 75° 73° (ENE) 18:12:06 435.800 - 435.900 CW/SSB, 435.910 FM
Oscar 10/S400 15 Sep 18:04:31 18:21:49 40° 153° (SSE) 19:03:20 145.825 - 145.975 CW/USB, Beacon 145.810 USB
SO-67 15 Sep 18:12:31 18:13:28 11° 63° (ENE) 18:14:25 435.3500 MHz FM
Hamsat 15 Sep 18:13:35 18:17:57 90° 269° (W) 18:22:21 145.90 MHz
Saudisat 1A 15 Sep 18:22:36 18:26:22 28° 116° (ESE) 18:30:10 436.775 MHz
STRAND 1 15 Sep 18:36:28 18:37:53 11° 87° (E) 18:39:17 ?
MaSat-1 15 Sep 19:32:10 19:36:11 55° 247° (WSW) 19:39:36 437.345 MHz
OPAL 15 Sep 19:40:16 19:43:59 20° 303° (WNW) 19:47:41 ?
HO-68 15 Sep 19:41:04 19:46:39 26° 55° (NE) 19:52:15 435.675 MHz FM
SO-67 15 Sep 19:42:37 19:46:02 57° 260° (W) 19:49:28 435.3500 MHz FM
JAS-2 15 Sep 19:49:53 19:52:41 14° 271° (W) 19:55:26 435.800 - 435.900 CW/SSB, 435.910 FM
Saudisat 1A 15 Sep 20:01:40 20:05:49 40° 314° (NW) 20:10:01 436.775 MHz
Sapphire 15 Sep 20:03:20 20:05:05 11° 23° (NNE) 20:06:49 437.095 MHz 1200 baud AX-25 AFSK
STRAND 1 15 Sep 20:12:41 20:17:51 84° 104° (ESE) 20:22:59 ?
PCSat 15 Sep 20:30:08 20:33:21 16° 31° (NNE) 20:36:33 145.825 MHz
KITSAT 1 15 Sep 20:33:49 20:41:35 54° 114° (ESE) 20:49:22 435.175 FM
Oscar 11 15 Sep 21:07:50 21:11:24 25° 66° (ENE) 21:14:59 145.825 FM, Beacon 2401.500 USB
UKube-1 15 Sep 21:19:23 21:23:31 46° 70° (ENE) 21:27:41 145.840 MHz, 145.915 MHz
HO-68 15 Sep 21:26:33 21:33:41 77° 255° (WSW) 21:40:52 435.675 MHz FM
Sapphire 15 Sep 21:45:08 21:50:10 37° 47° (NE) 21:55:10 437.095 MHz 1200 baud AX-25 AFSK
Saudisat 1A 15 Sep 21:45:19 21:46:37 11° 337° (NNW) 21:47:55 436.775 MHz
STRAND 1 15 Sep 21:53:24 21:56:22 16° 303° (WNW) 21:59:21 ?
PCSat 15 Sep 22:12:33 22:17:56 59° 53° (NE) 22:23:17 145.825 MHz
FUNcube-1 15 Sep 22:20:51 22:25:07 56° 72° (ENE) 22:29:32 145.950 - 145.970 MHz USB
